STARLINK-11175, 60191

Orbit data source: Space-Track

STARLINK-11175, 60191 is a payload satellite owned by SpaceX/Seattle (US) in LEO that was launched on Wed, 03 Jul 2024 UTC via an FALCON 9 launch vehicle from the Air Force Eastern Test Range (AFETR). Payload-class satellites include a variety of spacecraft equipped with specific instruments for various scientific and technological missions. These include communications satellites like Starlink; space stations such as the ISS; scientific satellites like the Hubble; Earth observation satellites from companies like Planet Labs, Umbra, and HawkEye 360; GPS; miniature CubeSats for education and research; and military/defense satellites.

Loading next visibility...
Identifier
60191, 2024-124J
Orbit
LEO
Last TLE update
18 hours ago
Origin
Manufacturer
SpaceX/Seattle
Mission
Operational Commercial Communications
Bus & Motor
STARLINK V2M, Unknown motor
Mass
730 kg wet, ~700 kg dry
Launch date (UTC)
2024-07-03 (10 months ago)
Launch vehicle
FALCON 9
Launch site
Air Force Eastern Test Range (AFETR)
Object type
Payload
Rocket body
Debris
Shape & HBR
Box + 2 Pan, 29 m
Radar Cross Section
36.964 m², Large (>1 m²)

Expand to show TLE details & history

TLE from 18 hours ago
0 STARLINK-11175
1 60191U 24124J   25128.53724275  .00003631  00000-0  34823-4 0  9990
2 60191  53.1585 225.7466 0000617 107.9610 252.1475 15.69702718 49786
Epoch: 2025-05-08T12:53Z
Definitive object data (Epoch: 2025-05-08T12:53:37.773Z)
Latitude
-0.00004°
Longitude
165.73286°
Altitude
360.79 km
Speed
7.694 km/s
True Right ascension
15h 02m 59s
True Declination
0° 00' 00"
Sunlit
Object was in full shadow at TLE epoch
Visualization TLE readout
Latitude
-35.46961°
Longitude
129.9443°
Altitude
371.421 km
Speed
7.686 km/s
Apparent Right ascension
08h 33m 56s
Apparent Declination
-66° 47' 20"
Sunlit
Object is in full shadow
Visualization observer readout
Local Sidereal Time
15:10:59
Azimuth
210.355° SW
Elevation
-39.671°
Doppler factor
1
Orbital elements
Apogee altitude
360.424 km
Perigee altitude
359.593 km
Semi-major axis
6,738.146 km
Eccentricity
0.0000617
Inclination
53.1585°
RAAN
225.7466°
Arg. of periapsis
107.961°
True anomaly
252.14077°
Mean anomaly
252.1475°
Eccentric anomaly
252.14414°
Mean motion
3.92403 °/min
BSTAR
0.000034823
Orbital period
91.74 mins
Loading maneuver chart data...
Loading SW <> Apogee altitude chart data...
Loading historical data...
Loading historical data...
Loading historical data...
Loading historical data...
Loading historical data...
Loading historical data...
Loading historical data...

STARLINK-11175 Visibility forecast

Observer location: undefined°, undefined°

Span
Click to sort rows by Start time (UTC) header in descending order
Start Az.
Max El. time (UTC)
Max El. Az.
Max El.
End time (UTC)
End Az.
5 mins2025-05-09 08:56:03.150Z217.121° SW2025-05-09 08:59:03.150Z88.86° E37.544°2025-05-09 09:01:03.150Z57.565° ENE
|